Location: Palomar Mountain Lodge
(33.3110°N, 116.8495°W)
Time: 14:24:53
(UTC-07:00)

NOAA 6 - Visible Passes

Search period start: 16 March 2026 00:00
Search period end: 26 March 2026 00:00
Orbit: 766 x 781 km, 98.6° (Epoch: 16 March)

Date Brightness Start Highest point End Pass type
(mag) Time Alt. Az. Time Alt. Az. Time Alt. Az.
16 Mar 6.2 20:39:50 10° SSW 20:44:02 25° W 20:48:15 10° NW visible
17 Mar 4.7 20:04:33 10° S 20:09:35 58° WSW 20:14:39 10° NNW visible
18 Mar 4.0 19:30:15 10° SSE 19:35:19 62° ENE 19:40:23 10° N visible
18 Mar 7.0 21:12:56 10° WSW 21:14:47 12° W 21:16:38 10° WNW visible
19 Mar 6.0 20:35:51 10° SSW 20:40:12 28° W 20:44:33 10° NW visible
20 Mar 4.5 20:00:42 10° S 20:05:46 64° WSW 20:10:52 10° NNW visible
21 Mar 4.1 19:26:30 10° SSE 19:31:30 57° ENE 19:36:31 10° N visible
21 Mar 6.9 21:08:33 10° WSW 21:10:55 13° W 21:13:17 10° WNW visible
22 Mar 5.9 20:31:52 10° SSW 20:36:21 30° W 20:40:50 10° NW visible
23 Mar 4.3 19:56:51 10° S 20:01:57 70° WSW 20:07:04 10° NNW visible
24 Mar 4.2 19:22:45 10° SSE 19:27:41 52° ENE 19:32:39 10° N visible
24 Mar 6.9 21:04:17 10° SW 21:07:03 15° W 21:09:51 10° WNW visible
25 Mar 5.7 20:27:55 10° SSW 20:32:30 33° W 20:37:07 10° NW visible
